Location: La Pernelle
(49.6188°N, 1.2999°W)
Time: 04:45:14
(UTC+00:00)

NOSS 3-2 (A) - Pass Details

Date: 18 October 2021
Orbit: 771 x 1437 km, 63.4° (Epoch: 21 November)

Event Time Altitude Azimuth Distance (km) Brightness Sun altitude
Rises 22:36:03 0° 317° (NW) 3,907 7.3 -47.5°
Reaches altitude 10° 22:38:34 10° 316° (NW) 3,037 6.6 -47.6°
Enters shadow 22:40:49 23° 315° (NW) 2,292 5.7 -47.8°
